Location: Montbazon
(47.2835°N, 0.6999°E)
Time: 18:06:42
(UTC+00:00)

IRS-1D - Pass Details

Date: 08 November 2025
Orbit: 735 x 812 km, 98.8° (Epoch: 09 December)

Event Time Altitude Azimuth Distance (km) Brightness Sun altitude
Rises 06:13:13 0° 4° (N) 3,215 6.6 -6.9°
Reaches altitude 10° 06:15:53 10° 351° (N) 2,276 5.7 -6.4°
Maximum altitude 06:19:50 24° 299° (WNW) 1,505 4.5 -5.8°
Drops below altitude 10° 06:23:44 10° 246° (WSW) 2,243 5.5 -5.2°
Sets 06:26:21 0° 233° (SW) 3,159 6.4 -4.7°
